Regional Weather Roundup
Issued by NWS

Home | Current Version | Previous Version | Text Only | Print | Product List | Glossary On
Versions: 1 2 3 4 5 6 7 8 9 10 11 12 13 14 15 16 17 18 19 20 21 22 23 24 25 26 27
000
ASUS45 KBOU 222307
RWRCO

WEATHER ROUNDUP FOR COLORADO
NATIONAL WEATHER SERVICE DENVER/BOULDER CO
500 PM MDT FRI SEP 22 2017

NOTE: "FAIR" INDICATES FEW OR NO CLOUDS BELOW 12000 FEET WITH NO
SIGNIFICANT WEATHER AND/OR OBSTRUCTIONS TO VISIBILITY.

COZ001>005-013-030-031-230000-
...NORTHWEST COLORADO...

CITY           SKY/WX    TMP DP  RH WIND       PRES   REMARKS
CRAIG          FAIR      62  37  39 SW10G24   29.85R
HAYDEN         PTSUNNY   58  39  49 W16       29.89R
MEEKER         FAIR      66  29  24 S20G28    29.84F
RABBIT EARS PA MOCLDY    46  32  57 SW8G22    30.07S THUNDER
STEAMBOAT SPGS FAIR      61  39  43 E3        29.87F
WALDEN         FAIR      61  30  31 SE15G22   29.94S
$$

COZ006>008-011-230000-
...WEST CENTRAL VALLEYS...

CITY           SKY/WX    TMP DP  RH WIND       PRES   REMARKS
GRAND JUNCTION FAIR      75  28  17 SW25G36   29.75S
MONTROSE       LGT RAIN  68  41  37 S12       29.84S
EAGLE          TSTM      66  35  31 W22G38    29.89R
RIFLE          FAIR      71  30  21 W18       29.79R
DELTA          NOT AVBL
NUCLA          FAIR      73  21  14 SW20G38   29.85F
$$

COZ017>023-064>068-230000-
...SOUTHWEST COLORADO...

CITY           SKY/WX    TMP DP  RH WIND       PRES   REMARKS
DURANGO        FAIR      73  28  18 SW21G33   29.91F
CORTEZ         FAIR      75  25  15 SW25G37   29.85S
PAGOSA SPRINGS FAIR      65  36  33 CALM      30.01S
TELLURIDE      RAIN      53  39  60 SW5       30.05S
WOLF CREEK PAS LGT RAIN  36  36 100 S15G29    30.27F
$$

COZ009-010-012-014-032>034-037-058>063-230000-
...CENTRAL COLORADO...

CITY           SKY/WX    TMP DP  RH WIND       PRES   REMARKS
ASPEN          FAIR      63  33  32 SE14G29   29.93S
BUENA VISTA    PTSUNNY   67  28  22 S16G26    29.97R
COPPER MTN     PTSUNNY   50  25  37 S23G41    30.20R
BERTHOUD PASS  FAIR      43  34  70 S32G56    30.22R
COTTONWOOD PAS PTSUNNY   61  28  29 SW26G43   30.08S
GUNNISON       FAIR      63  33  32 SW15G33   29.98S
KREMMLING      FAIR      64  37  36 S10       29.94R
LEADVILLE      PTSUNNY   55  23  28 S15G29    30.06R
SALIDA         FAIR      67  36  31 SW16G24   30.04R
SUNLIGHT       CLOUDY    45  32  61 SW15G29   30.12R THUNDER
WILKERSON PASS CLOUDY    54  25  32 SW20G33   30.18F
$$

COZ069>075-230000-
...SAN LUIS VALLEY/SANGRE DE CRISTO MOUNTAINS...

CITY           SKY/WX    TMP DP  RH WIND       PRES   REMARKS
ALAMOSA        PTSUNNY   69  31  24 SW22G29   29.98R
DEL NORTE      PTSUNNY   60  41  49 W14       30.06F
LA VETA PASS   FAIR      59  30  33 S26G51    30.26S
SAGUACHE       PTSUNNY   61  37  41 W29G36    30.07R
$$

COZ035-036-038>040-230000-
...NORTHERN COLORADO FRONT RANGE...

CITY           SKY/WX    TMP DP  RH WIND       PRES   REMARKS
DENVER INTL AP PTSUNNY   72  40  31 NW23G30   29.77R
DMNS CITY PARK   N/A     69  45  43 N16       29.80R
AURORA         PTSUNNY   69  41  35 NW15      29.81R
FRONT RANGE AP PTSUNNY   75  41  29 NW18G37   29.78R
ERIE MUNI ARPT FAIR      68  40  36 N18G31    29.87R
BOULDER MUN AP FAIR      70  39  32 N21G30    29.81R
CENTENNIAL     PTSUNNY   68  41  37 NW17      29.83R
BROOMFIELD     PTSUNNY   72  39  30 N29G38    29.83R
FORT COLLINS   LGT RAIN  63  44  50 N17       29.82S
LONGMONT       PTSUNNY   68  40  35 N13G23    29.84R
$$

COZ041-046-047-076>085-087-088-230000-
...PIKES PEAK/PALMER DIVIDE AND SOUTHERN FOOTHILLS...

CITY           SKY/WX    TMP DP  RH WIND       PRES   REMARKS
COLO. SPRINGS  PTSUNNY   79  33  19 S24G30    29.85R
A. F. ACADEMY  FAIR      76  28  17 S15G26    29.86R
SCHRIEVER AFB  FAIR      77  28  16 S25G32    29.86S
CHEYENNE MTN   PTSUNNY   73  28  19 S13G24    29.84R
ELLICOTT         N/A    N/A N/A N/A SW20G32   29.85R
FALCON         FAIR      74  27  17 S24G37    29.90S
FORT CARSON    FAIR      80  32  18 S18G31    29.80S
LIMON            N/A    N/A N/A N/A MISG      29.81
MONUMENT HILL  FAIR      72  30  21 S26G32    29.91R
CANON CITY     MOSUNNY   88  34  14 S23G35    29.78R
WALSENBURG     FAIR      81  30  16 SW18G30   29.87R
TRINIDAD       FAIR      81  35  19 S26G36    29.86S
$$

COZ042>045-048>051-090-091-230000-
...NORTHEAST COLORADO...

CITY           SKY/WX    TMP DP  RH WIND       PRES   REMARKS
GREELEY ARPT   FAIR      66  41  40 N24G38    29.78S
AKRON          FAIR      83  33  16 SE23G35   29.76S
BURLINGTON     FAIR      88  37  16 S24G36    29.78F
WRAY           FAIR      88  32  13 S17G28    29.74S
YUMA           FAIR      81  36  19 S14G23    29.75R
STERLING       FAIR      73  46  38 NE13G18   29.73F
HOLYOKE        FAIR      81  41  24 N15       29.75S
FORT MORGAN    FAIR      72  39  30 NE16      29.75R
$$

COZ086-089-092>099-230000-
...SOUTHEAST COLORADO...

CITY           SKY/WX    TMP DP  RH WIND       PRES   REMARKS
PUEBLO         FAIR      86  30  13 S23G30    29.75S
LA JUNTA       FAIR      90  34  13 SW24G35   29.75S
LAMAR          FAIR      92  38  15 SW22G37   29.73F
SPRINGFIELD      N/A     86  57  37 S24G39    29.82S
$$




USA.gov is the U.S. government's official web portal to all federal, state and local government web resources and services.